Date String (YYYY-MM-DD hh:mm:ss) UTC,Instrument flags,absolute air pressure of the measurement (hPa),sample flow rate (lpm),inlet stack bypass flow (lpm),air temperature of the measurement (°C),ambient temperature measured by the external sensor (°C),aerosol sample conditioner tube jacket temperature (°C),OPC LED temperature (°C),internal box temperature (°C),relative humidity of the measurement (%),span deviation,mass concentration of particles derived from Lorenz-Mie calculation of OPC scattering (μg/m³),mass concentration of particles derived from Lorenz-Mie calculation of OPC scattering (μg/m³),mass concentration of particles derived from Lorenz-Mie calculation of OPC scattering (μg/m³)
DateTimeUTC,F1_M11,P_M11,Q1_M11,Q2_M11,T1_M11,T2_M11,T3_M11,T4_M11,T5_M11,U1_M11,ZSPAN_M11,X0_M11,X2_M11,X1_M11
2023-10-04 23:00:00,SystemResetWarning,0830.4,5.00,000.00,028.6,027.4,000.0,037.0,030.4,13.5,0000.0,0010.18,0002.15,0001.57
2023-10-04 23:01:00,SystemResetWarning,0830.4,5.00,000.00,028.7,027.5,000.0,037.0,030.5,13.6,0000.0,0009.69,0002.13,0001.57
2023-10-04 23:02:00,SystemResetWarning,0830.4,5.01,000.00,028.7,027.7,000.0,037.0,030.5,13.6,0000.0,0009.39,0002.13,0001.57
2023-10-04 23:03:00,SystemResetWarning,0830.4,5.00,000.00,028.8,027.8,000.0,037.1,030.6,13.8,0000.0,0008.61,0002.15,0001.57
2023-10-04 23:04:00,SystemResetWarning,0830.4,4.99,000.00,028.8,027.9,000.0,037.1,030.6,13.9,0000.0,0008.54,0002.20,0001.55
2023-10-04 23:05:00,SystemResetWarning,0830.4,4.99,000.00,028.9,028.0,000.0,037.1,030.7,14.3,0000.0,0008.84,0002.22,0001.55
2023-10-04 23:06:00,SystemResetWarning,0830.5,4.99,000.00,028.9,027.8,000.0,037.2,030.7,14.5,0000.0,0008.72,0002.24,0001.55
2023-10-04 23:07:00,SystemResetWarning,0830.4,5.01,000.00,028.9,026.1,000.0,037.1,030.6,14.4,0000.0,0009.43,0002.27,0001.56
2023-10-04 23:08:00,SystemResetWarning,0830.4,5.00,000.00,028.8,025.3,000.0,037.1,030.5,14.4,0000.0,0010.12,0002.28,0001.56
2023-10-04 23:09:00,SystemResetWarning,0830.5,5.00,000.00,028.7,025.3,000.0,037.0,030.3,14.4,0000.0,0009.85,0002.26,0001.56
2023-10-04 23:10:00,SystemResetWarning,0830.4,5.01,000.00,028.7,025.6,000.0,037.1,030.2,14.6,0000.0,0009.92,0002.30,0001.57
2023-10-04 23:11:00,SystemResetWarning,0830.4,5.00,000.00,028.6,026.0,000.0,037.1,030.2,14.5,0000.0,0009.32,0002.23,0001.55
2023-10-04 23:12:00,SystemResetWarning,0830.5,5.00,000.00,028.7,026.4,000.0,037.1,030.3,14.5,0000.0,0008.81,0002.19,0001.54
2023-10-04 23:13:00,SystemResetWarning,0830.6,5.00,000.00,028.7,026.7,000.0,037.1,030.3,14.5,0000.0,0008.74,0002.18,0001.54
2023-10-04 23:14:00,SystemResetWarning,0830.5,5.00,000.00,028.7,026.9,000.0,037.1,030.4,14.6,0000.0,0008.45,0002.14,0001.54
2023-10-04 23:15:00,SystemResetWarning,0830.6,5.01,000.00,028.7,027.2,000.0,037.1,030.4,14.8,0000.0,0007.91,0002.09,0001.54
2023-10-04 23:16:00,SystemResetWarning,0830.5,5.01,000.00,028.8,027.4,000.0,037.1,030.5,14.8,0000.0,0007.74,0002.09,0001.54
2023-10-04 23:17:00,SystemResetWarning,0830.4,5.00,000.00,028.8,027.6,000.0,037.2,030.6,14.5,0000.0,0007.73,0002.05,0001.54
2023-10-04 23:18:00,SystemResetWarning,0830.6,5.00,000.00,028.9,027.7,000.0,037.2,030.6,14.4,0000.0,0007.33,0002.05,0001.53
2023-10-04 23:19:00,SystemResetWarning,0830.4,5.00,000.00,028.9,027.8,000.0,037.2,030.7,14.5,0000.0,0006.84,0002.08,0001.54
2023-10-04 23:20:00,SystemResetWarning,0830.4,5.00,000.00,028.9,027.6,000.0,037.2,030.7,14.7,0000.0,0007.31,0002.13,0001.54
2023-10-04 23:21:00,SystemResetWarning,0830.5,4.98,000.00,028.9,025.6,000.0,037.2,030.5,14.8,0000.0,0007.38,0002.16,0001.54
2023-10-04 23:22:00,SystemResetWarning,0830.5,5.02,000.00,028.8,024.3,000.0,037.1,030.2,14.7,0000.0,0007.37,0002.14,0001.54
2023-10-04 23:23:00,SystemResetWarning,0830.5,5.01,000.00,028.7,024.3,000.0,037.0,030.1,15.0,0000.0,0007.35,0002.13,0001.54
2023-10-04 23:24:00,SystemResetWarning,0830.5,5.00,000.00,028.6,024.6,000.0,037.0,029.9,15.2,0000.0,0007.69,0002.14,0001.55
2023-10-04 23:25:00,SystemResetWarning,0830.5,5.00,000.00,028.5,025.1,000.0,037.0,029.9,15.1,0000.0,0008.98,0002.17,0001.55
2023-10-04 23:26:00,SystemResetWarning,0830.6,4.99,000.00,028.5,025.5,000.0,037.0,030.0,15.0,0000.0,0009.09,0002.21,0001.56
2023-10-04 23:27:00,SystemResetWarning,0830.5,5.00,000.00,028.5,025.9,000.0,037.0,030.1,15.1,0000.0,0009.17,0002.22,0001.56
2023-10-04 23:28:00,SystemResetWarning,0830.5,5.00,000.00,028.5,026.3,000.0,037.0,030.1,15.1,0000.0,0009.48,0002.23,0001.57
2023-10-04 23:29:00,SystemResetWarning,0830.6,5.00,000.00,028.5,026.6,000.0,037.0,030.2,15.1,0000.0,0009.58,0002.25,0001.58
2023-10-04 23:30:00,SystemResetWarning,0830.6,5.00,000.00,028.6,026.9,000.0,037.0,030.3,15.0,0000.0,0009.25,0002.20,0001.58
2023-10-04 23:31:00,SystemResetWarning,0830.6,5.01,000.00,028.6,027.1,000.0,037.0,030.3,15.0,0000.0,0008.55,0002.20,0001.57
2023-10-04 23:32:00,SystemResetWarning,0830.6,5.00,000.00,028.6,027.3,000.0,037.0,030.4,14.8,0000.0,0008.55,0002.23,0001.58
2023-10-04 23:33:00,SystemResetWarning,0830.6,5.00,000.00,028.7,027.5,000.0,037.0,030.4,14.9,0000.0,0008.80,0002.31,0001.60
2023-10-04 23:34:00,SystemResetWarning,0830.6,5.00,000.00,028.7,027.6,000.0,037.1,030.5,15.0,0000.0,0009.31,0002.39,0001.63
2023-10-04 23:35:00,SystemResetWarning,0830.6,5.01,000.00,028.8,027.7,000.0,037.1,030.6,15.0,0000.0,0009.58,0002.44,0001.64
2023-10-04 23:36:00,SystemResetWarning,0830.6,4.99,000.00,028.8,027.8,000.0,037.1,030.6,14.9,0000.0,0008.34,0002.46,0001.65
2023-10-04 23:37:00,SystemResetWarning,0830.6,4.99,000.00,028.9,027.9,000.0,037.1,030.7,14.9,0000.0,0008.66,0002.43,0001.65
2023-10-04 23:38:00,SystemResetWarning,0830.7,4.99,000.00,028.9,027.7,000.0,037.2,030.7,14.8,0000.0,0008.62,0002.45,0001.66
2023-10-04 23:39:00,SystemResetWarning,0830.7,5.01,000.00,028.9,026.0,000.0,037.1,030.6,14.9,0000.0,0008.08,0002.48,0001.66
2023-10-04 23:40:00,SystemResetWarning,0830.6,4.99,000.00,028.8,025.1,000.0,037.1,030.4,14.7,0000.0,0007.95,0002.46,0001.66
2023-10-04 23:41:00,SystemResetWarning,0830.7,5.01,000.00,028.7,025.2,000.0,037.0,030.2,14.9,0000.0,0008.04,0002.50,0001.66
2023-10-04 23:42:00,SystemResetWarning,0830.7,5.01,000.00,028.6,025.5,000.0,037.1,030.1,15.0,0000.0,0008.20,0002.58,0001.66
2023-10-04 23:43:00,SystemResetWarning,0830.8,5.00,000.00,028.6,025.9,000.0,037.1,030.2,14.9,0000.0,0007.63,0002.55,0001.66
2023-10-04 23:44:00,SystemResetWarning,0830.8,5.00,000.00,028.6,026.2,000.0,037.1,030.2,15.2,0000.0,0007.63,0002.51,0001.66
2023-10-04 23:45:00,SystemResetWarning,0830.9,5.00,000.00,028.6,026.6,000.0,037.1,030.3,15.1,0000.0,0007.48,0002.53,0001.64
2023-10-04 23:46:00,SystemResetWarning,0830.9,4.99,000.00,028.7,026.9,000.0,037.1,030.3,15.1,0000.0,0007.20,0002.58,0001.65
2023-10-04 23:47:00,SystemResetWarning,0830.9,4.99,000.00,028.7,027.1,000.0,037.1,030.4,15.2,0000.0,0007.93,0002.62,0001.65
2023-10-04 23:48:00,SystemResetWarning,0830.9,4.99,000.00,028.7,027.3,000.0,037.1,030.5,15.3,0000.0,0007.67,0002.68,0001.65
2023-10-04 23:49:00,SystemResetWarning,0831.0,5.00,000.00,028.8,027.5,000.0,037.1,030.5,15.2,0000.0,0008.11,0002.72,0001.65
2023-10-04 23:50:00,SystemResetWarning,0830.9,5.00,000.00,028.8,027.6,000.0,037.1,030.6,15.1,0000.0,0008.94,0002.75,0001.66
2023-10-04 23:51:00,SystemResetWarning,0830.9,5.00,000.00,028.8,027.3,000.0,037.1,030.6,15.0,0000.0,0009.46,0002.81,0001.67
2023-10-04 23:52:00,SystemResetWarning,0830.9,5.00,000.00,028.8,025.4,000.0,037.1,030.4,14.9,0000.0,0009.51,0002.88,0001.68
2023-10-04 23:53:00,SystemResetWarning,0830.9,5.00,000.00,028.7,024.1,000.0,037.0,030.1,15.2,0000.0,0010.12,0002.88,0001.70
2023-10-04 23:54:00,SystemResetWarning,0830.9,5.01,000.00,028.6,024.1,000.0,037.0,030.0,15.2,0000.0,0010.43,0002.93,0001.71
2023-10-04 23:55:00,SystemResetWarning,0830.9,5.01,000.00,028.5,024.5,000.0,037.0,029.8,15.1,0000.0,0010.24,0002.91,0001.71
2023-10-04 23:56:00,SystemResetWarning,0831.0,4.99,000.00,028.4,025.0,000.0,036.9,029.8,15.2,0000.0,0010.04,0002.86,0001.71
2023-10-04 23:57:00,SystemResetWarning,0831.0,5.00,000.00,028.4,025.4,000.0,036.9,029.9,15.3,0000.0,0010.06,0002.91,0001.72
2023-10-04 23:58:00,SystemResetWarning,0831.0,5.00,000.00,028.4,025.8,000.0,036.9,030.0,15.4,0000.0,0009.81,0002.88,0001.72
2023-10-04 23:59:00,SystemResetWarning,0831.1,5.00,000.00,028.4,026.2,000.0,036.9,030.1,15.5,0000.0,0010.41,0002.90,0001.73
